www.pogodaiklimat.ru

Погода и климат >> Архив погоды >> Канада >> Arviat Climate


ПОГОДА в Arviat Climate

  • Прогноз погоды в Arviat Climate
  • Монитор погоды в Arviat Climate
  • Климат города

АРХИВ ПОГОДЫ в Arviat Climate

Время (UTC), дата Ветер
(напр.,м/с)
 
Видим.   Явления Облачность Т
(С)
Тd
(С)
f
(%)
Тe
(С)
Тes
(С)
Комфортность P
(гПа)
Po
(гПа)
Тmin
(С)
Tmax
(С)
R
(мм)
R24
(мм)
S
(см)
03 11.08 ЮВ 6 н/о н/о +10.7 +10.5 99 +7 +7 1007.6 1006.4
06 11.08 ЮВ 7 н/о н/о +10.6 +10.5 99 +7 +7 1004.8 1003.6 +8.8 +13.3 6
09 11.08 ЮВ 11 н/о н/о +10.7 +10.6 99 +6 +6 999.2 998.0 2
12 11.08 Ю 7 н/о {осадки} н/о +11.3 +11.0 98 +8 +8 995.3 994.1 +10.4 +13.3 3
15 11.08 З 8 н/о н/о +18.8 +15.7 82 +19 +19 994.0 992.8
18 11.08 З 14 н/о н/о +18.4 +7.8 50 +17 +17 994.5 993.3 +10.4 +20.3
21 11.08 З 15 н/о н/о +17.3 +9.3 59 +15 +15 995.2 994.0
00 12.08 СЗ 15 н/о н/о +14.6 +8.3 66 +11 +11 997.3 996.1 +10.4 +20.3
03 12.08 З 16 н/о н/о +11.9 +6.3 69 +7 +7 1000.9 999.7
06 12.08 СЗ 15 н/о н/о +9.9 +5.3 73 +5 +5 1003.1 1001.9 +9.8 +20.3 4
09 12.08 СЗ 13 н/о н/о +9.1 +5.3 77 +4 +4 1005.7 1004.5
12 12.08 СЗ 12 н/о {осадки} н/о +8.1 +5.4 83 +2 +2 1009.1 1007.9 +7.9 +20.3 0.2
15 12.08 СЗ 12 н/о н/о +10.1 +4.8 70 +5 +5 1011.3 1010.1
18 12.08 СЗ 13 н/о н/о +12.9 +3.4 52 +9 +9 1012.8 1011.6 +7.6 +13.7
21 12.08 СЗ 12 н/о н/о +13.8 +3.1 48 +11 +11 1013.6 1012.4
00 13.08 СЗ 10 н/о н/о +12.8 +2.9 51 +10 +10 1015.2 1014.0 +7.6 +14.4
03 13.08 СЗ 5 н/о н/о +8.4 +4.2 75 +5 +5 1016.6 1015.4
06 13.08 З 4 н/о н/о +4.1 +2.7 91 -0 -0 1017.9 1016.7 +4.1 +14.4 7
09 13.08 СЗ 5 н/о н/о +3.7 +3.0 95 -1 -1 1017.8 1016.6
12 13.08 СЗ 3 н/о н/о +5.2 +3.8 91 +2 +2 1018.1 1016.9 +2.5 +14.4
15 13.08 З 3 н/о н/о +10.9 +1.6 53 +10 +10 1017.8 1016.6
18 13.08 Ю 7 н/о н/о +11.7 +4.6 62 +9 +9 1016.0 1014.8 +2.5 +12.1
21 13.08 Ю 11 н/о н/о +11.6 +4.6 62 +8 +8 1013.5 1012.3
00 14.08 Ю 12 н/о н/о +10.7 +6.7 76 +6 +6 1011.6 1010.4 +2.5 +12.4
03 14.08 ЮЗ 8 н/о н/о +10.2 +8.4 89 +6 +6 1010.8 1009.6
06 14.08 ЮЗ 7 н/о н/о +9.2 +8.0 92 +5 +5 1009.9 1008.7 +2.5 +12.4 22
09 14.08 ЮЗ 5 н/о н/о +8.7 +6.9 88 +5 +5 1008.7 1007.5
12 14.08 ЮЗ 5 н/о н/о +9.1 +7.0 87 +6 +6 1007.3 1006.1 +7.1 +12.4
15 14.08 Ю 9 н/о н/о +11.9 +8.8 81 +8 +8 1005.0 1003.8
18 14.08 Ю 11 н/о н/о +13.2 +9.5 78 +10 +10 1002.7 1001.5 +7.1 +13.3
21 14.08 ЮЗ 10 н/о н/о +18.6 +10.5 59 +18 +18 1001.2 1000.0
00 15.08 ЮЗ 9 н/о н/о +14.9 +10.7 76 +13 +13 999.8 998.6 +7.1 +19.2
03 15.08 ЮЗ 11 н/о {осадки} н/о +11.6 +10.4 92 +7 +7 998.5 997.3 0.9
06 15.08 ЮЗ 8 н/о {осадки} н/о +12.6 +10.9 89 +10 +10 996.7 995.5 +7.1 +19.2 1 1
09 15.08 З 5 н/о н/о +11.9 +11.0 94 +9 +9 997.0 995.8 0.2
12 15.08 ЮЗ 4 н/о н/о +11.3 +10.9 97 +9 +9 997.1 995.9 +10.6 +19.2 0.2
15 15.08 СЗ 3 н/о н/о +15.7 +13.0 84 +15 +15 997.3 996.1
18 15.08 В 4 н/о н/о +12.6 +11.2 91 +11 +11 997.4 996.2 +10.6 +17.5
21 15.08 ЮВ 5 н/о н/о +12.4 +11.3 93 +10 +10 997.2 996.0
00 16.08 СВ 5 н/о н/о +11.1 +10.2 94 +8 +8 997.1 995.9 +10.6 +17.5
03 16.08 С 8 н/о {осадки} н/о +10.7 +10.4 98 +7 +7 999.2 998.0 1
06 16.08 С 11 н/о {осадки} н/о +9.1 +8.7 97 +4 +4 1002.9 1001.7 +9.0 +17.5 3 6
09 16.08 С 13 н/о н/о +7.2 +4.7 84 +1 +1 1006.9 1005.7
12 16.08 С 10 н/о {осадки} н/о +6.6 +3.4 80 +1 +1 1010.5 1009.3 +6.0 +17.5 0.2
15 16.08 СЗ 11 н/о н/о +8.0 +3.1 71 +3 +3 1013.1 1011.9
18 16.08 СЗ 9 н/о н/о +11.6 +2.6 54 +8 +8 1014.5 1013.3 +6.0 +11.6
21 16.08 СЗ 7 н/о н/о +12.4 +2.5 51 +10 +10 1015.2 1014.0
00 17.08 З 6 н/о н/о +13.5 +1.3 43 +12 +12 1015.1 1013.9 +6.0 +14.0
03 17.08 ЮЗ 4 н/о н/о +8.3 +5.7 84 +5 +5 1014.9 1013.7
06 17.08 ЮЗ 6 н/о н/о +8.4 +5.9 84 +5 +5 1014.5 1013.3 +6.0 +14.0 8
09 17.08 ЮЗ 7 н/о н/о +7.6 +5.7 88 +3 +3 1012.9 1011.7
12 17.08 ЮЗ 6 н/о н/о +8.8 +6.7 87 +5 +5 1011.4 1010.2 +7.3 +14.0
15 17.08 ЮЗ 6 н/о н/о +13.3 +9.6 78 +11 +11 1009.9 1008.7
18 17.08 З 4 н/о н/о +18.5 +11.9 65 +19 +19 1008.6 1007.4 +7.3 +18.6
21 17.08 Ю 5 н/о н/о +13.6 +10.4 81 +12 +12 1007.4 1006.2

 

Местоположение метеостанции Arviat Climate (Канада): широта 61.10 долгота -94.06 высота над уровнем моря 10 м.

В архиве по умолчанию представлена погода в Arviat Climate за последнюю неделю. Архивные данные за месяц целиком и за предыдущие месяцы, начиная с января 2011 года, Вы можете получить, выбрав интересующий диапазон дат из раскрывающегося списка и нажав кнопку "Ввод!".


*Определитесь, кто Вы:
робот инопланетянин человек

Внимание! Время в таблицах - всемирное. Для получения местного времени необходимо прибавить поправку, которая в Arviat Climate равна -6 ч.

Смотрите также архив погоды в соседних городах и на ближайших метеорологических станциях:

Погода в Arviat Airport (Канада) (1 км)
Погода в Rankin Inlet (Канада) (217 км)
Погода в Churchill Climate (Канада) (265 км)
Погода в Tadoule Lake (Канада) (362 км)
Погода в Baker Lake Airport (Канада) (370 км)
Погода в Baker Lake Climate (Канада) (372 км)
Погода в Dubawnt Lake (Канада) (462 км)
Погода в Gillam (Канада) (530 км)
Погода в Back River MAPS (Канада) (567 км)
Погода в Wager Bay (Канада) (579 км)

Пояснения к столбцам:

Ветер - указаны скорость ветра в м/с - средняя за 10 мин, порывы в срок и между сроками (в фигурных скобках) и направление, откуда дует ветер: С - северный, СВ - северо-восточный, В - восточный, ЮВ - юго-восточный, Ю - южный, ЮЗ - юго-западный, З - западный, СЗ - северо-западный.
Видимость - горизонтальная дальность видимости в метрах или километрах. При видимости от 1 до 10 км при отсутствии осадков обычно наблюдается дымка, при ухудшении видимости до 1 км и менее - туман. В сухую погоду видимость может ухудшаться дымом, пылью или мглою.
Явления - указаны атмосферные явления, наблюдавшиеся в срок или в последний час перед сроком; фигурными скобками обозначены явления, наблюдавшиеся между сроками (за 1-3 часа до срока); квадратными скобками обозначены град или гололедные отложения с указанием их диаметра в мм.
Облачность - указаны через наклонную черту общая и нижняя облачность в баллах и высота нижней границы облаков в метрах; квадратными скобками обозначены формы облаков: Ci - перистые, Cs - перисто-слоистые, Cc - перисто-кучевые, Ac - высококучевые, As - высокослоистые, Sc - слоисто-кучевые, Ns - слоисто-дождевые, Cu - кучевые, Cb - кучево-дождевые. Подробнее классификацию облаков см. в Атласе облаков (PDF).
T - Температура воздуха - температура, измеренная на высоте 2 м над землей.
Td - Температура точки росы - температура, при понижении до которой содержащийся в воздухе водяной пар достигнет насыщения.
f - Относительная влажность воздуха - влажноcть воздуха, измеренная на высоте 2 м над землей.
Te - Эффективная температура - температура, которую ощущает одетый по сезону человек в тени. Характеристика душности погоды. При расчете учитывается влияние влажности воздуха и скорости ветра на теплоощущения человека.
Tes - Эффективная температура на солнце - температура, которую ощущает человек, с поправкой на солнечный нагрев. Характеристика знойности погоды. Зависит от высоты солнца над горизонтом, облачности и скорости ветра. Ночью, в пасмурную погоду, а также при ветре 12 м/с и более поправка равна нулю.
P - Атмосферное давление - приведенное к уровню моря атмосферное давление.
Po - Атмосферное давление - измеренное на уровне метеостанции атмосферное давление.
Tmin - Минимальная температура - минимум температуры воздуха на высоте 2 м над землей.
Tmax - Максимальная температура - максимум температуры воздуха на высоте 2 м над землей.
R - Количество осадков - Количество выпавших осадков за период времени, мм. При наведении курсора мыши на число - период времени, за который выпало указанное количество осадков.
R24 - Количество осадков - Количество выпавших осадков за 24 часа, мм.
S - Снежный покров - Высота снежного покрова, см. При наведении курсора мыши на число - состояние снежного покрова и степень покрытия местности в баллах.